Home > Time Zones > World Clock > Weather > Palau > Koror > Past weeks

Flag for Palau Weather past 2 weeks in Koror, Palau

Now
81 °F

Partly cloudy.


Feels Like: 87 °F
Forecast: 79 / 87 °F
Wind: No wind

Location: Koror / Palau Island

Current Time: Aug 31, 2014 at 4:02:18 AM

Latest Report: Aug 31, 2014 at 2:54 AM


Visibility: 14 mi

Pressure: 29.72 "Hg

Humidity: 89%

Dew point: 77 °F

Location of KororLocation

Historic Weather in Koror — Graph

°F

Koror temperature yesterday

Maximum temperature yesterday: 88 °F (at 1:50 PM)
Minimum temperature yesterday: 79 °F (at 7:55 AM)
Average temperature yesterday: 82 °F

Past Weeks' High & Low Weather Summary

 TemperatureHumidityPressure
High90 °F (Aug 19, 1:50 PM)100% (Aug 16, 1:50 AM)29.95 "Hg (Aug 16, 1:50 AM)
Low77 °F (Aug 27, 4:50 AM)70% (Aug 28, 12:50 PM)29.72 "Hg (Aug 30, 2:50 PM)
Average83 °F91%29.84 "Hg
* Reported Aug 16 1:50 AM — Aug 31 1:53 AM, Koror, Weather by CustomWeather, © 2014

Note: Actual official high and low records may vary slightly from our data, if they occured in-between our weather recording intervals... More about our weather records

Advertising

Koror weather history for previous 24 hours

 ConditionsComfort  
Time TempWeatherWind HumidityBarometerVisibility
1:53 AM
Aug 31
79 °FPartly cloudy.No wind94%29.73 "Hg14 mi
12:51 AM79 °FPartly cloudy.No wind94%29.73 "Hg14 mi
11:50 PM
Aug 30
81 °FPartly cloudy.No wind89%29.76 "Hg14 mi
10:54 PM79 °FMostly cloudy.No wind94%29.79 "Hg14 mi
9:50 PM79 °FMostly cloudy.No wind94%29.77 "Hg14 mi
8:51 PM79 °FMostly cloudy.No wind94%29.77 "Hg14 mi
7:55 PM79 °FMostly cloudy.No wind94%29.78 "Hg14 mi
6:51 PM81 °FLots of rain. Mostly cloudy.10 mph89%29.78 "Hg5 mi
5:52 PM81 °FMostly cloudy.5 mph89%29.76 "Hg14 mi
4:54 PM81 °FSprinkles. Mostly cloudy.6 mph89%29.74 "Hg10 mi
3:50 PM82 °FRain showers. Mostly cloudy.10 mph94%29.73 "Hg7 mi
2:50 PM86 °FPartly sunny.13 mph79%29.72 "Hg15 mi
1:50 PM88 °FPartly sunny.15 mph75%29.75 "Hg15 mi
12:50 PM86 °FPartly sunny.15 mph79%29.77 "Hg15 mi
11:50 AM86 °FPartly sunny.14 mph84%29.79 "Hg15 mi
10:50 AM86 °FMostly cloudy.12 mph84%29.81 "Hg14 mi
9:50 AM81 °FSprinkles. Partly sunny.7 mph94%29.83 "Hg10 mi
8:50 AM84 °FPartly sunny.8 mph89%29.85 "Hg15 mi
7:55 AM79 °FScattered showers. Partly sunny.8 mph100%29.83 "Hg14 mi
6:55 AM81 °FPartly sunny.5 mph94%29.82 "Hg15 mi
5:55 AM82 °FBroken clouds.5 mph89%29.81 "Hg15 mi
Weather by CustomWeather, © 2014

See weather overviewHow to use our weather pages